This is the latest recevied weather packets stored in our database for station/object VK5TRM-14. If no packets are shown the sender has not sent any weather packets the latest 10 day(s).
| Time | Temp. | Humidity | Pressure | Rain* | Wind** | Luminosity | Snow |
|---|---|---|---|---|---|---|---|
| 1777796105 | 17.22° C | 54% | 1012.6 hPa | 0.25 mm | - | - | - |
| 1777795205 | 18.33° C | 45% | 1012.5 hPa | 0.25 mm | - | - | - |
| 1777794306 | 18.33° C | 45% | 1012.5 hPa | 0.25 mm | - | - | - |
| 1777793405 | 18.89° C | 43% | 1012.4 hPa | 0.25 mm | - | - | - |
| 1777792506 | 18.89° C | 43% | 1012.4 hPa | 0.25 mm | - | - | - |
| 1777791605 | 19.44° C | 42% | 1012.3 hPa | 0.25 mm | - | - | - |
| 1777790705 | 19.44° C | 42% | 1012.3 hPa | 0.25 mm | - | - | - |
| 1777789805 | 19.44° C | 42% | 1012.2 hPa | 0.25 mm | - | - | - |
| 1777788906 | 19.44° C | 42% | 1012.2 hPa | 0.25 mm | - | - | - |
| 1777788005 | 19.44° C | 40% | 1012.2 hPa | 0.25 mm | - | - | - |
| 1777787105 | 19.44° C | 40% | 1012.2 hPa | 0.25 mm | - | - | - |
| 1777786205 | 20.56° C | 40% | 1012.2 hPa | 0.25 mm | - | - | - |
| 1777785305 | 20.56° C | 40% | 1012.2 hPa | 0.25 mm | - | - | - |
| 1777784405 | 19.44° C | 40% | 1012.2 hPa | 0.25 mm | - | - | - |
| 1777783506 | 19.44° C | 40% | 1012.2 hPa | 0.25 mm | - | - | - |
| 1777782605 | 19.44° C | 43% | 1012.5 hPa | 0.25 mm | - | - | - |
| 1777781705 | 19.44° C | 43% | 1012.5 hPa | 0.25 mm | - | - | - |
| 1777780805 | 18.89° C | 44% | 1012.7 hPa | 0 mm | - | - | - |
| 1777779906 | 18.89° C | 44% | 1012.7 hPa | 0 mm | - | - | - |
| 1777779007 | 18.89° C | 44% | 1013.1 hPa | 0 mm | - | - | - |
| 1777778105 | 18.89° C | 44% | 1013.1 hPa | 0 mm | - | - | - |
| 1777777205 | 18.89° C | 45% | 1013.3 hPa | 0 mm | - | - | - |
| 1777776305 | 18.89° C | 45% | 1013.3 hPa | 0 mm | - | - | - |
| 1777775405 | 18.33° C | 49% | 1013.4 hPa | 0 mm | - | - | - |
| 1777774505 | 18.33° C | 49% | 1013.4 hPa | 0 mm | - | - | - |
* Rain since midnight (hover to see other rain measurements)
** Current wind speed in m/s (hover to see current wind gust speed)